NI4CE-10 Weather Reports


Display with metric or nautical units.
time (UTC)temp
F
wind
direction
speed
MPH
gust
MPH
rain 1hr
in
rain 24hr
in
rain mn
in
humidity
%
barometer
mb
20260503232058 74 88 3.0 4.0 0.00 0.62 0.60 100 1017.5
20260503232014 75 116 4.0 6.0 0.00 0.62 0.60 100 1017.3
20260503231558 75 97 1.0 5.0 0.00 0.62 0.60 100 1017.4
20260503231418 74 115 2.0 5.0 0.00 0.62 0.60 100 1017.3
20260503231058 74 115 2.0 5.0 0.00 0.62 0.60 100 1017.3
20260503230730 75 98 3.0 5.0 0.00 0.62 0.60 100 1017.3
20260503230558 75 116 4.0 6.0 0.00 0.62 0.60 100 1017.3
20260503230143 75 116 3.0 7.0 0.00 0.62 0.60 100 1017.3
20260503230112 75 116 3.0 7.0 0.00 0.62 0.60 100 1017.3
20260503230058 75 98 3.0 5.0 0.00 0.62 0.60 100 1017.3
20260503225558 75 116 3.0 7.0 0.00 0.62 0.60 100 1017.3
20260503225058 75 112 4.0 6.0 0.00 0.62 0.60 100 1017.3
20260503224558 75 99 3.0 6.0 0.00 0.62 0.60 100 1017.2
20260503224147 75 67 4.0 5.0 0.00 0.62 0.60 100 1017.3
20260503224058 75 126 3.0 5.0 0.00 0.62 0.60 100 1017.2
20260503223802 75 67 4.0 5.0 0.00 0.62 0.60 100 1017.3
20260503223558 75 67 4.0 5.0 0.00 0.62 0.60 100 1017.3
20260503223418 75 80 2.0 6.0 0.00 0.62 0.60 100 1017.3
20260503223058 75 80 2.0 6.0 0.00 0.62 0.60 100 1017.3
20260503222730 75 95 6.0 8.0 0.00 0.64 0.60 100 1017.3
20260503222558 75 123 4.0 6.0 0.00 0.64 0.60 100 1017.4
20260503222058 75 95 6.0 8.0 0.00 0.64 0.60 100 1017.3
20260503221558 76 119 5.0 9.0 0.00 0.64 0.60 100 1017.2
20260503221340 76 102 4.0 9.0 0.00 0.64 0.60 100 1017.3
20260503221313 76 132 5.0 9.0 0.00 0.64 0.60 100 1017.3
20260503221103 76 129 6.0 8.0 0.00 0.64 0.60 100 1017.2
20260503221058 76 102 4.0 9.0 0.00 0.64 0.60 100 1017.3
20260503220603 76 104 4.0 11.0 0.00 0.64 0.60 100 1017.2
20260503220558 76 129 6.0 8.0 0.00 0.64 0.60 100 1017.2
20260503220058 76 104 4.0 11.0 0.00 0.64 0.60 100 1017.2
20260503215558 77 59 5.0 5.0 0.00 0.64 0.60 100 1017.2
20260503215058 76 132 5.0 9.0 0.00 0.64 0.60 100 1017.3
20260503214558 76 137 5.0 10.0 0.00 0.64 0.60 100 1017.2
20260503214058 77 67 6.0 8.0 0.00 0.64 0.60 100 1017.2
20260503213558 77 140 4.0 8.0 0.00 0.64 0.60 100 1017.4
20260503213058 76 118 7.0 8.0 0.00 0.64 0.60 100 1017.4
20260503212856 78 101 4.0 7.0 0.00 0.67 0.60 100 1017.3
20260503212558 78 101 4.0 7.0 0.00 0.67 0.60 100 1017.3
20260503212058 78 109 5.0 8.0 0.00 0.67 0.60 100 1017.3
20260503211729 78 77 4.0 9.0 0.00 0.67 0.60 100 1017.3
20260503211651 77 61 4.0 9.0 0.00 0.67 0.60 100 1017.5
20260503211558 78 77 4.0 9.0 0.00 0.67 0.60 100 1017.3
20260503211058 78 94 7.0 9.0 0.00 0.67 0.60 100 1017.4
20260503210652 78 87 3.0 10.0 0.00 0.67 0.60 100 1017.4
20260503210558 78 87 3.0 10.0 0.00 0.67 0.60 100 1017.4
20260503210058 78 78 4.0 9.0 0.00 0.67 0.60 100 1017.3
20260503205805 77 61 4.0 9.0 0.00 0.67 0.60 100 1017.5
20260503205558 77 61 4.0 9.0 0.00 0.67 0.60 100 1017.5
20260503205058 78 61 8.0 11.0 0.00 0.67 0.60 100 1017.6
20260503204558 78 46 5.0 10.0 0.00 0.67 0.60 100 1017.7
20260503204128 77 37 6.0 10.0 0.00 0.67 0.60 100 1017.8
20260503204058 77 42 7.0 12.0 0.00 0.67 0.60 100 1017.8
20260503203558 77 37 6.0 10.0 0.00 0.67 0.60 100 1017.8
20260503203455 77 91 6.0 13.0 0.00 1.34 0.60 100 1018.0
20260503203058 77 56 5.0 10.0 0.00 0.67 0.60 100 1017.8
20260503203014 77 85 6.0 11.0 0.00 1.34 0.60 100 1017.8
20260503202558 77 85 6.0 11.0 0.00 1.34 0.60 100 1017.8
20260503202058 77 68 9.0 11.0 0.00 1.34 0.60 100 1017.9
20260503201558 76 39 8.0 13.0 0.00 1.34 0.60 100 1017.9
20260503201058 78 78 8.0 11.0 0.00 1.34 0.60 100 1017.9
20260503200558 77 95 5.0 11.0 0.00 1.34 0.60 100 1017.9
20260503200058 77 91 6.0 13.0 0.00 1.34 0.60 100 1018.0
20260503200044 78 78 10.0 14.0 0.00 1.34 0.60 100 1018.1
20260503195558 78 78 10.0 14.0 0.00 1.34 0.60 100 1018.1
20260503195430 77 80 1.0 14.0 0.00 1.34 0.60 100 1018.1
20260503195058 77 80 1.0 14.0 0.00 1.34 0.60 100 1018.1
20260503194601 77 74 8.0 11.0 0.00 1.34 0.60 100 1018.2
20260503194558 77 43 12.0 13.0 0.00 1.34 0.60 100 1018.2
20260503194058 77 74 8.0 11.0 0.00 1.34 0.60 100 1018.2
20260503193558 76 56 4.0 12.0 0.00 1.34 0.60 100 1018.1
20260503193316 75 52 11.0 12.0 0.00 1.34 0.60 100 1018.3
20260503193058 75 52 11.0 12.0 0.00 1.34 0.60 100 1018.3
20260503192821 75 49 6.0 14.0 0.00 1.34 0.60 100 1018.4
20260503192651 75 49 6.0 14.0 0.00 1.34 0.60 100 1018.4
20260503192558 75 49 6.0 14.0 0.00 1.34 0.60 100 1018.4
20260503192548 75 74 10.0 12.0 0.00 1.34 0.60 100 1018.4
20260503192059 75 74 10.0 12.0 0.00 1.34 0.60 100 1018.4
20260503191900 75 71 4.0 11.0 0.00 1.34 0.60 100 1018.7
20260503191815 76 147 4.0 13.0 0.00 1.34 0.60 100 1018.5
20260503191559 76 147 4.0 13.0 0.00 1.34 0.60 100 1018.5
20260503191059 75 35 4.0 12.0 0.00 1.34 0.60 100 1018.6
20260503190559 75 71 4.0 11.0 0.00 1.34 0.60 100 1018.7
20260503190059 74 5 4.0 14.0 0.00 1.34 0.60 100 1018.7
20260503185638 74 40 7.0 12.0 0.00 1.34 0.60 100 1019.0
20260503185559 74 26 3.0 13.0 0.00 1.34 0.60 100 1018.8
20260503185059 74 40 7.0 12.0 0.00 1.34 0.60 100 1019.0
20260503184809 75 66 9.0 12.0 0.00 1.34 0.60 100 1019.1
20260503184559 75 66 9.0 12.0 0.00 1.34 0.60 100 1019.1
20260503184059 74 120 6.0 14.0 0.00 1.34 0.60 100 1019.2
20260503184003 74 28 11.0 12.0 0.00 1.34 0.60 100 1019.3
20260503183559 74 28 11.0 12.0 0.00 1.34 0.60 100 1019.3
20260503183433 73 90 9.0 14.0 0.00 1.34 0.60 100 1019.4
20260503183059 73 90 9.0 14.0 0.00 1.34 0.60 100 1019.4
20260503182559 74 49 5.0 12.0 0.00 1.34 0.60 100 1019.4
20260503182212 73 73 7.0 11.0 0.00 1.34 0.60 100 1019.4
20260503182059 73 73 7.0 11.0 0.00 1.34 0.60 100 1019.4
20260503181559 73 66 6.0 12.0 0.00 1.34 0.60 100 1019.4
20260503181059 73 99 5.0 9.0 0.00 1.34 0.60 100 1019.4
20260503180739 72 116 8.0 15.0 0.00 1.34 0.60 100 1019.5
20260503180559 72 116 8.0 15.0 0.00 1.34 0.60 100 1019.5
20260503180059 73 64 12.0 12.0 0.00 1.34 0.60 100 1019.5
20260503175559 72 71 6.0 10.0 0.00 1.34 0.60 100 1019.6
20260503175059 72 49 5.0 11.0 0.00 1.34 0.60 100 1019.6
20260503174825 72 82 1.0 8.0 0.00 1.34 0.60 100 1019.8
20260503174559 72 74 7.0 10.0 0.00 1.34 0.60 100 1019.7
20260503174059 71 81 7.0 13.0 0.00 1.34 0.60 100 1019.8
20260503173631 72 82 1.0 8.0 0.00 1.34 0.60 100 1019.8
20260503173559 72 67 6.0 11.0 0.00 1.34 0.60 100 1019.8
20260503173059 72 82 1.0 8.0 0.00 1.34 0.60 100 1019.8
20260503172940 71 59 5.0 12.0 0.00 1.34 0.60 100 1019.8
20260503172819 71 90 5.0 12.0 0.00 1.34 0.60 100 1019.8
20260503172559 71 59 5.0 12.0 0.00 1.34 0.60 100 1019.8
20260503172525 71 90 5.0 12.0 0.00 1.34 0.60 100 1019.8
20260503172059 71 90 5.0 12.0 0.00 1.34 0.60 100 1019.8
20260503172013 71 78 7.0 11.0 0.00 1.34 0.60 100 1019.8
20260503171835 71 78 7.0 11.0 0.00 1.34 0.60 100 1019.8
20260503171559 71 78 7.0 11.0 0.00 1.34 0.60 100 1019.8
20260503171439 70 42 4.0 11.0 0.00 1.34 0.60 100 1020.0
20260503171059 70 42 4.0 11.0 0.00 1.34 0.60 100 1020.0
20260503170559 70 70 4.0 9.0 0.00 1.34 0.60 100 1020.0
20260503150600 69 78 7.0 16.0 0.00 1.34 0.60 100 1020.1
20260503150514 69 74 5.0 14.0 0.00 1.34 0.60 100 1020.0
20260503131100 67 15 7.0 8.0 0.00 1.34 0.60 100 1019.3
20260503130600 66 39 3.0 8.0 0.00 1.34 0.60 100 1019.2
20260503110601 66 28 2.0 8.0 0.00 1.34 0.60 100 1017.9
20260503100206 66 54 3.0 9.0 0.00 1.34 0.60 100 1017.3
20260503081622 68 49 2.0 12.0 0.09 1.34 0.60 100 1016.3
20260503081601 68 4 7.0 14.0 0.04 1.34 0.60 100 1016.6
20260503081345 68 49 2.0 12.0 0.09 1.34 0.60 100 1016.3
20260503081101 68 49 2.0 12.0 0.09 1.34 0.60 100 1016.3
20260503081025 68 36 7.0 12.0 0.12 1.34 0.60 100 1016.0
20260503080601 68 36 7.0 12.0 0.12 1.34 0.60 100 1016.0
20260503080554 69 16 4.0 12.0 0.19 1.34 0.60 100 1016.0
20260503072602 69 347 6.0 9.0 0.44 1.33 0.59 100 1016.1
20260503072102 69 355 5.0 10.0 0.46 1.33 0.59 100 1016.4
20260503071602 69 345 7.0 12.0 0.45 1.30 0.56 100 1016.4
20260503071514 69 358 3.0 8.0 0.45 1.25 0.51 100 1016.4
20260503071136 69 358 3.0 8.0 0.45 1.25 0.51 100 1016.4
20260503071102 69 358 3.0 8.0 0.45 1.25 0.51 100 1016.4
20260503070819 70 348 7.0 8.0 0.44 1.22 0.48 100 1016.5
20260503070602 70 348 7.0 8.0 0.44 1.22 0.48 100 1016.5
20260503055102 71 268 0.0 0.0 0.00 0.74 0.00 100 1016.6
20260503054602 71 268 0.0 0.0 0.00 0.74 0.00 100 1016.7
20260503054442 71 268 0.0 4.0 0.00 0.74 0.00 100 1016.7
20260503054135 71 268 0.0 4.0 0.00 0.74 0.00 100 1016.7
20260503054102 71 268 0.0 4.0 0.00 0.74 0.00 100 1016.7
20260503053614 70 157 0.0 0.0 0.00 0.74 0.00 100 1016.6
20260503053602 70 237 0.0 1.0 0.00 0.74 0.00 100 1016.8
20260503053102 70 157 0.0 0.0 0.00 0.74 0.00 100 1016.6
20260503052602 70 157 0.0 0.0 0.00 0.74 0.00 100 1016.5
20260503052102 70 157 0.0 1.0 0.00 0.74 0.00 100 1016.3
20260503051602 70 157 1.0 2.0 0.00 0.74 0.00 100 1016.5
20260503051515 70 217 0.0 3.0 0.00 0.74 0.00 100 1016.7
20260503051102 70 217 0.0 3.0 0.00 0.74 0.00 100 1016.7
20260503050602 70 194 1.0 3.0 0.00 0.74 0.00 100 1016.9
20260503045757 70 217 2.0 5.0 0.00 0.74 0.74 100 1016.7
20260503045604 70 217 4.0 5.0 0.00 0.74 0.74 100 1016.8
20260503045602 70 241 2.0 6.0 0.00 0.74 0.74 100 1016.8
20260503045102 70 217 4.0 5.0 0.00 0.74 0.74 100 1016.8
20260503044602 70 217 2.0 5.0 0.00 0.74 0.74 100 1016.7
20260503044532 70 213 1.0 3.0 0.00 0.74 0.74 100 1016.9
20260503044102 70 213 1.0 3.0 0.00 0.74 0.74 100 1016.9
20260503043602 70 223 3.0 4.0 0.00 0.74 0.74 100 1017.0
20260503043416 70 140 1.0 5.0 0.00 0.74 0.74 100 1016.9
20260503043102 70 140 1.0 5.0 0.00 0.74 0.74 100 1016.9
20260503042602 70 220 4.0 6.0 0.00 0.74 0.74 100 1017.0
20260503042102 70 210 4.0 6.0 0.00 0.74 0.74 100 1016.9
20260503041602 70 170 1.0 5.0 0.00 0.74 0.74 100 1016.8
20260503041339 70 216 3.0 4.0 0.00 0.74 0.74 100 1016.9
20260503041102 70 216 3.0 4.0 0.00 0.74 0.74 100 1016.9
20260503040602 70 227 0.0 2.0 0.00 0.74 0.74 100 1017.0
20260503035801 70 230 0.0 0.0 0.00 0.74 0.74 100 1016.6
20260503035640 70 230 0.0 0.0 0.00 0.74 0.74 100 1016.6
20260503035602 70 230 0.0 0.0 0.00 0.74 0.74 100 1016.9
20260503035102 70 230 0.0 0.0 0.00 0.74 0.74 100 1016.6
20260503035002 69 230 0.0 0.0 0.00 0.74 0.74 100 1016.5
20260503034839 69 230 0.0 0.0 0.00 0.74 0.74 100 1016.5
20260503034602 69 230 0.0 0.0 0.00 0.74 0.74 100 1016.5
20260503034524 70 230 0.0 0.0 0.00 0.74 0.74 100 1016.3
20260503034102 70 230 0.0 0.0 0.00 0.74 0.74 100 1016.3
20260503033603 70 230 0.0 0.0 0.00 0.74 0.74 100 1016.3
20260503033102 70 230 0.0 0.0 0.00 0.74 0.74 100 1016.3
20260503033010 70 230 0.0 1.0 0.00 0.74 0.74 100 1016.1
20260503032603 70 230 0.0 0.0 0.00 0.74 0.74 100 1016.2
20260503032103 70 230 0.0 1.0 0.00 0.74 0.74 100 1016.1
20260503031630 70 215 0.0 0.0 0.00 0.74 0.74 100 1015.4
20260503031603 70 205 0.0 4.0 0.00 0.74 0.74 100 1015.9
20260503031103 70 194 0.0 1.0 0.00 0.74 0.74 100 1015.7
20260503030603 70 215 0.0 0.0 0.00 0.74 0.74 100 1015.4
20260503025603 70 215 0.0 1.0 0.00 0.74 0.74 100 1015.5
20260503025528 70 202 1.0 5.0 0.00 0.74 0.74 100 1016.0
20260503025103 70 202 1.0 5.0 0.00 0.74 0.74 100 1016.0
20260503024732 70 198 1.0 3.0 0.00 0.74 0.74 100 1015.9
20260503024603 70 258 2.0 4.0 0.00 0.74 0.74 100 1016.2
20260503024103 70 198 1.0 3.0 0.00 0.74 0.74 100 1015.9
20260503023717 70 229 0.0 0.0 0.00 0.74 0.74 100 1015.7
20260503023603 70 229 0.0 0.0 0.00 0.74 0.74 100 1015.8
20260503023103 70 229 0.0 0.0 0.00 0.74 0.74 100 1015.7
20260503022603 70 229 0.0 0.0 0.00 0.74 0.74 100 1015.7
20260503022103 70 229 0.0 0.0 0.00 0.74 0.74 100 1015.9
20260503021603 70 229 0.0 0.0 0.00 0.74 0.74 100 1015.9
20260503021152 70 243 3.0 5.0 0.00 0.74 0.74 100 1016.0
20260503021103 70 229 0.0 3.0 0.00 0.74 0.74 100 1016.0
20260503020603 70 237 0.0 6.0 0.00 0.74 0.74 100 1015.9
20260503015603 70 225 2.0 4.0 0.00 0.74 0.74 100 1016.0
20260503015103 70 248 2.0 4.0 0.00 0.74 0.74 100 1016.0
20260503014731 70 257 0.0 5.0 0.00 0.74 0.74 100 1016.0
20260503014603 69 192 0.0 5.0 0.00 0.74 0.74 100 1016.0
20260503014150 70 257 0.0 5.0 0.00 0.74 0.74 100 1016.0
20260503014103 70 257 0.0 5.0 0.00 0.74 0.74 100 1016.0
20260503013603 69 201 0.0 5.0 0.01 0.74 0.74 100 1015.7
20260503013521 69 246 3.0 4.0 0.01 0.74 0.74 100 1015.6
20260503013103 69 246 3.0 4.0 0.01 0.74 0.74 100 1015.6
20260503012603 69 40 0.0 0.0 0.01 0.74 0.74 100 1014.9
20260503012254 69 106 0.0 0.0 0.01 0.74 0.74 100 1015.0
20260503012103 69 106 0.0 0.0 0.01 0.74 0.74 100 1014.7
20260503011603 69 106 0.0 0.0 0.01 0.74 0.74 100 1014.7
20260503011104 69 106 0.0 0.0 0.01 0.74 0.74 100 1015.0
20260503010754 70 289 0.0 2.0 0.00 0.73 0.73 100 1014.5
20260503010603 69 106 0.0 2.0 0.01 0.74 0.74 100 1014.7
20260503010103 69 156 2.0 3.0 0.01 0.74 0.74 100 1014.8
20260503005603 69 202 0.0 4.0 0.01 0.74 0.74 100 1015.1
20260503005103 70 268 0.0 0.0 0.01 0.74 0.74 100 1015.1
20260503004603 70 268 0.0 2.0 0.01 0.74 0.74 100 1014.6
20260503004103 70 254 2.0 3.0 0.01 0.74 0.74 100 1014.7
20260503003603 70 289 0.0 2.0 0.00 0.73 0.73 100 1014.5
20260503003442 70 192 0.0 6.0 0.01 0.73 0.73 100 1014.1
20260503003103 69 216 0.0 0.0 0.01 0.73 0.73 100 1013.7
20260503002603 70 192 0.0 6.0 0.01 0.73 0.73 100 1014.1
20260503002133 70 202 5.0 8.0 0.01 0.73 0.73 100 1014.8
20260503002103 70 180 0.0 6.0 0.01 0.73 0.73 100 1014.4
20260503001603 70 202 5.0 8.0 0.01 0.73 0.73 100 1014.8
20260503001548 69 188 4.0 8.0 0.01 0.73 0.73 100 1012.9
20260503001103 70 250 6.0 10.0 0.01 0.73 0.73 100 1014.8
20260503000603 70 210 7.0 9.0 0.01 0.73 0.73 100 1014.4
20260503000103 70 237 6.0 7.0 0.01 0.73 0.73 100 1013.9
20260502235603 69 188 4.0 8.0 0.01 0.73 0.73 100 1012.9
20260502235455 70 182 2.0 4.0 0.01 0.73 0.73 100 1013.4
20260502235103 70 188 2.0 6.0 0.01 0.73 0.73 100 1013.2
20260502234603 70 182 2.0 4.0 0.01 0.73 0.73 100 1013.4
20260502234502 70 165 0.0 0.0 0.02 0.72 0.72 100 1014.3
20260502234103 70 165 0.0 0.0 0.02 0.73 0.73 100 1013.9
20260502233603 70 165 0.0 0.0 0.02 0.73 0.73 100 1014.2
20260502233104 70 165 0.0 0.0 0.02 0.72 0.72 100 1013.8
20260502232604 70 165 0.0 0.0 0.02 0.72 0.72 100 1014.3